Location: Göttingen
(51.5413°N, 9.9158°E)
Time: 02:38:29
(UTC+02:00)

Envisat - Pass Details

Date: 23 January 2022
Orbit: 764 x 765 km, 98.2° (Epoch: 22 May)

Event Time Altitude Azimuth Distance (km) Brightness Sun altitude
Rises 03:48:16 0° 28° (NNE) 3,242 6.8 -40.2°
Reaches altitude 10° 03:51:43 10° 53° (NE) 2,310 6.1 -39.7°
Maximum altitude 03:54:27 14° 86° (E) 2,012 5.7 -39.3°
Drops below altitude 10° 03:57:10 10° 118° (ESE) 2,301 5.8 -38.9°
Sets 04:00:34 0° 143° (SE) 3,221 6.4 -38.4°
